Вернуться в каталог

COSMOS 2491 DEB

LostPO
NORAD 57546·DEBRIS·🇷🇺 Russia

Запущен Dec 25, 2013 с Plesetsk Cosmodrome

Loading…

Ближайшие Пролёты (ближайшие 24 часа)

TLE

УстаревшееSource: Space-Track

Эпоха: Sep 13, 2023, 16:36 UTC

1 57546U 13076AH  23256.69199118  .00000470  00000-0  20508-2 0  9994
2 57546  82.6332  44.3796 0062313 301.0633  58.4360 12.78284294 16298

Отслеживайте COSMOS 2491 DEB в реальном времени с AllMySat

Download on the App Store